Lid_Strength_Index
12 12 11 11 12 12 12 12 12 12 12 12 12 12 11 11 10 10 10 11 11 11 9 8 8 7 8 7 6 5 6 5 6 5 7 8 8 6 7 5 4 5 5
12 11 10 10 10 11 11 11 11 11 11 12 11 11 11 10 10 10 11 11 11 10 9 9 9 8 8 7 7 6 5 4 6 6 8 8 8 7 8 8 7 4 5
10 11 10 11 11 11 11 11 11 11 12 11 11 11 11 10 10 11 11 10 10 9 9 9 9 9 8 7 6 6 6 4 5 6 6 10 10 9 10 11 10 10 8
11 11 10 10 10 11 11 11 11 11 12 12 11 11 11 11 11 11 11 10 10 9 9 8 8 8 8 8 8 7 6 6 6 7 9 10 10 11 10 12 12 12 11
11 11 10 10 10 10 10 11 11 11 12 12 11 11 11 11 11 11 10 10 10 9 9 8 8 8 9 8 7 6 7 9 9 8 9 11 11 11 10 11 11 13 13
11 10 10 11 11 11 11 11 11 11 12 12 11 12 12 12 10 10 9 10 9 9 9 9 8 10 9 8 7 7 6 8 9 8 10 9 11 11 11 10 12 12 12
10 10 11 11 11 11 11 12 12 12 12 12 12 13 12 11 10 9 9 10 10 10 10 10 9 8 10 9 8 7 7 7 6 7 8 9 11 10 11 11 12 12 12
12 11 11 11 11 12 12 12 13 12 12 12 13 13 12 11 10 10 9 10 10 11 10 10 10 10 9 9 9 9 9 8 7 6 6 9 10 9 9 10 11 13 13
14 11 13 11 12 12 12 13 12 12 13 13 13 13 12 11 10 10 9 11 12 12 11 10 10 10 9 8 9 10 10 10 7 7 7 7 7 7 9 10 11 12 15
14 13 13 13 12 12 13 12 12 13 14 14 13 12 12 12 11 10 9 12 12 12 11 10 11 10 9 8 9 10 11 11 11 11 11 11 10 10 10 10 10 13 16
14 14 14 14 11 12 12 12 12 13 14 16 14 13 12 12 12 9 9 11 12 12 12 11 11 9 8 7 7 9 10 11 11 13 13 13 13 14 14 14 13 12 14
15 15 15 15 14 13 12 12 13 14 17 17 14 13 12 12 12 10 10 10 11 12 12 11 11 8 8 8 9 9 10 11 13 14 15 15 15 17 17 17 17 17 17
13 14 15 14 14 14 12 12 14 14 15 16 15 14 13 12 12 11 11 11 11 12 12 11 10 10 10 10 10 11 12 13 14 15 16 17 17 16 16 17 17 18 19
14 13 14 14 14 15 13 11 13 14 14 15 15 14 14 12 13 13 12 12 12 12 12 12 12 12 12 13 13 13 13 13 14 15 16 16 15 17 18 17 18 19 21
14 13 13 13 14 15 15 14 13 13 12 14 14 14 15 13 12 11 12 13 13 12 13 13 13 14 14 14 14 14 14 14 15 15 16 17 18 19 20 20 20 21 22
13 13 12 13 13 15 16 15 13 12 12 12 12 13 13 11 10 11 11 11 12 12 14 15 16 15 16 16 16 16 16 16 16 17 18 19 21 22 23 23 23 23 25
14 13 13 14 13 15 18 16 17 16 12 13 13 13 13 12 12 12 13 13 13 14 16 17 17 17 18 18 18 18 19 19 18 19 20 21 22 24 24 26 26 26 28
15 14 13 13 13 14 17 16 18 19 17 17 15 15 14 14 14 14 14 16 18 18 19 19 19 19 18 19 19 20 20 21 21 22 23 23 24 25 26 26 26 27 28
15 13 13 12 13 13 18 18 19 20 17 17 19 17 18 17 17 16 16 19 20 21 21 22 22 22 22 22 23 23 23 24 24 24 25 24 25 26 27 28 28 28 28
15 14 14 13 14 14 17 17 19 20 19 19 22 23 20 21 21 23 23 23 23 24 24 24 25 24 24 24 24 24 25 25 26 27 27 28 28 28 29 30 30 31 32
14 14 13 15 14 13 15 16 17 19 21 23 24 23 19 24 27 28 28 28 28 27 27 26 26 27 26 25 25 25 26 27 27 28 28 28 28 30 30 30 31 32 32
13 13 15 13 13 13 14 15 16 19 19 22 25 23 19 26 27 28 30 30 31 31 31 27 28 30 31 28 27 27 28 29 29 29 29 29 30 30 31 32 32 33 34
13 13 14 14 13 13 14 15 16 18 19 21 24 27 29 28 29 30 29 32 31 29 30 28 28 30 31 31 31 28 27 28 29 28 29 30 30 31 31 32 33 35 37
12 13 13 13 13 13 14 16 16 18 19 22 24 27 27 28 29 30 31 32 30 31 30 30 30 31 31 31 31 30 29 29 29 29 29 29 32 32 32 33 34 38 38
12 13 13 13 13 13 14 15 16 19 20 22 25 26 28 28 29 30 31 31 31 30 31 31 31 30 30 31 30 30 27 29 30 29 29 30 31 33 33 34 37 40 42
12 13 13 13 13 13 14 15 16 19 21 22 24 25 26 27 28 29 30 30 29 30 31 31 30 29 29 29 29 27 26 27 30 30 30 30 31 33 32 35 39 40 43